| time (UTC) | temp C | wind direction | speed KPH | gust KPH | rain 1hr cm | rain 24hr cm | rain mn cm | humidity % | barometer mb |
| 20260503203905 | 9 | 198 | 0.0 | 1.6 | 0.00 | 0.00 | 0.00 | 95 | 1035.2 |
| 20260503203405 | 9 | 198 | 0.0 | 3.2 | 0.00 | 0.00 | 0.00 | 95 | 1035.1 |
| 20260503202905 | 9 | 199 | 0.0 | 1.6 | 0.00 | 0.00 | 0.00 | 95 | 1035.0 |
| 20260503200405 | 8 | 200 | 1.6 | 4.8 | 0.00 | 0.00 | 0.00 | 95 | 1034.9 |
| 20260503195904 | 8 | 200 | 6.4 | 8.0 | 0.00 | 0.00 | 0.00 | 95 | 1034.9 |
| 20260503195405 | 8 | 217 | 1.6 | 4.8 | 0.00 | 0.00 | 0.00 | 95 | 1034.9 |
| 20260503192905 | 7 | 240 | 0.0 | 1.6 | 0.00 | 0.00 | 0.00 | 95 | 1034.7 |
| 20260503185406 | 6 | 238 | 0.0 | 0.0 | 0.00 | 0.00 | 0.00 | 95 | 1034.4 |
| 20260503183406 | 6 | 238 | 0.0 | 0.0 | 0.00 | 0.00 | 0.00 | 95 | 1034.3 |
| 20260503182906 | 6 | 238 | 0.0 | 0.0 | 0.00 | 0.00 | 0.00 | 95 | 1034.2 |
| 20260503182406 | 7 | 238 | 0.0 | 1.6 | 0.00 | 0.00 | 0.00 | 95 | 1034.1 |
| 20260503180906 | 7 | 228 | 1.6 | 1.6 | 0.00 | 0.00 | 0.00 | 95 | 1033.9 |
| 20260503180406 | 7 | 227 | 0.0 | 1.6 | 0.00 | 0.00 | 0.00 | 95 | 1033.9 |
| 20260503175905 | 7 | 226 | 0.0 | 1.6 | 0.00 | 0.03 | 0.00 | 95 | 1033.9 |
| 20260503175405 | 7 | 226 | 0.0 | 1.6 | 0.00 | 0.03 | 0.00 | 95 | 1033.9 |
| 20260503174905 | 7 | 222 | 0.0 | 1.6 | 0.00 | 0.03 | 0.00 | 95 | 1033.8 |
| 20260503173906 | 7 | 219 | 0.0 | 3.2 | 0.00 | 0.03 | 0.00 | 95 | 1033.7 |
| 20260503173406 | 7 | 219 | 0.0 | 1.6 | 0.00 | 0.03 | 0.00 | 95 | 1033.8 |
| 20260503172405 | 7 | 111 | 0.0 | 0.0 | 0.00 | 0.03 | 0.00 | 95 | 1033.8 |
| 20260503171407 | 7 | 103 | 0.0 | 0.0 | 0.00 | 0.03 | 0.00 | 95 | 1033.9 |
| 20260503170906 | 7 | 103 | 0.0 | 1.6 | 0.00 | 0.03 | 0.00 | 95 | 1034.0 |
| 20260503150906 | 7 | 90 | 0.0 | 3.2 | 0.00 | 0.03 | 0.00 | 95 | 1034.5 |
| 20260503150406 | 7 | 84 | 0.0 | 1.6 | 0.00 | 0.03 | 0.00 | 95 | 1034.6 |
| 20260503131405 | 3 | 270 | 0.0 | 0.0 | 0.00 | 0.03 | 0.00 | 94 | 1035.0 |
| 20260503130405 | 4 | 270 | 0.0 | 0.0 | 0.00 | 0.03 | 0.00 | 93 | 1035.1 |
| 20260503110406 | 5 | 271 | 0.0 | 0.0 | 0.00 | 0.03 | 0.03 | 93 | 1034.6 |
| 20260503081405 | 8 | 251 | 0.0 | 0.0 | 0.00 | 0.03 | 0.03 | 90 | 1033.2 |
| 20260503072904 | 10 | 251 | 0.0 | 0.0 | 0.00 | 0.03 | 0.03 | 89 | 1033.0 |
| 20260503072404 | 10 | 251 | 0.0 | 0.0 | 0.00 | 0.03 | 0.03 | 88 | 1033.0 |
| 20260503071404 | 9 | 251 | 0.0 | 0.0 | 0.00 | 0.03 | 0.03 | 87 | 1033.0 |
| 20260503070905 | 10 | 251 | 0.0 | 0.0 | 0.00 | 0.03 | 0.03 | 86 | 1033.0 |
| 20260503053905 | 14 | 20 | 0.0 | 0.0 | 0.00 | 0.03 | 0.03 | 76 | 1032.5 |
| 20260503052906 | 15 | 20 | 1.6 | 3.2 | 0.00 | 0.03 | 0.03 | 73 | 1032.5 |
| 20260503051905 | 16 | 21 | 1.6 | 1.6 | 0.00 | 0.03 | 0.03 | 71 | 1032.5 |
| 20260503051405 | 16 | 21 | 1.6 | 3.2 | 0.00 | 0.03 | 0.03 | 68 | 1032.5 |
| 20260503045406 | 18 | 25 | 0.0 | 0.0 | 0.00 | 0.03 | 0.03 | 63 | 1032.3 |
| 20260503043904 | 17 | 25 | 0.0 | 1.6 | 0.00 | 0.03 | 0.03 | 66 | 1032.4 |
| 20260503043406 | 17 | 25 | 0.0 | 1.6 | 0.00 | 0.03 | 0.03 | 67 | 1032.5 |
| 20260503042905 | 17 | 31 | 0.0 | 3.2 | 0.00 | 0.03 | 0.03 | 67 | 1032.5 |
| 20260503042406 | 17 | 31 | 3.2 | 3.2 | 0.00 | 0.03 | 0.03 | 66 | 1032.5 |
| 20260503041906 | 17 | 30 | 1.6 | 3.2 | 0.00 | 0.03 | 0.03 | 64 | 1032.5 |
| 20260503040905 | 18 | 26 | 1.6 | 4.8 | 0.00 | 0.03 | 0.03 | 63 | 1032.5 |
| 20260503035905 | 18 | 25 | 0.0 | 1.6 | 0.00 | 0.03 | 0.03 | 62 | 1032.5 |
| 20260503035405 | 18 | 25 | 1.6 | 3.2 | 0.00 | 0.03 | 0.03 | 62 | 1032.5 |
| 20260503034905 | 18 | 23 | 0.0 | 3.2 | 0.00 | 0.03 | 0.03 | 64 | 1032.5 |
| 20260503034405 | 17 | 49 | 3.2 | 4.8 | 0.00 | 0.03 | 0.03 | 66 | 1032.5 |
| 20260503031905 | 20 | 207 | 0.0 | 3.2 | 0.00 | 0.03 | 0.03 | 60 | 1032.5 |
| 20260503024904 | 19 | 128 | 0.0 | 1.6 | 0.00 | 0.03 | 0.03 | 61 | 1032.7 |
| 20260503023905 | 18 | 123 | 0.0 | 4.8 | 0.00 | 0.03 | 0.03 | 63 | 1032.8 |
| 20260503023405 | 17 | 66 | 3.2 | 4.8 | 0.00 | 0.03 | 0.03 | 65 | 1032.9 |
| 20260503022905 | 18 | 95 | 3.2 | 8.0 | 0.00 | 0.03 | 0.03 | 62 | 1032.9 |
| 20260503020905 | 18 | 214 | 3.2 | 4.8 | 0.00 | 0.03 | 0.03 | 62 | 1033.0 |
| 20260503020405 | 18 | 195 | 3.2 | 4.8 | 0.00 | 0.03 | 0.03 | 63 | 1033.0 |
| 20260503015905 | 18 | 87 | 0.0 | 3.2 | 0.00 | 0.03 | 0.03 | 63 | 1033.0 |
| 20260503015405 | 17 | 254 | 0.0 | 1.6 | 0.00 | 0.03 | 0.03 | 65 | 1033.0 |
| 20260503013905 | 17 | 92 | 1.6 | 4.8 | 0.00 | 0.03 | 0.03 | 67 | 1033.2 |
| 20260503012904 | 17 | 154 | 6.4 | 9.7 | 0.00 | 0.03 | 0.03 | 67 | 1033.4 |
| 20260503011904 | 17 | 177 | 6.4 | 11.3 | 0.00 | 0.03 | 0.03 | 66 | 1033.4 |
| 20260503005905 | 17 | 296 | 0.0 | 3.2 | 0.00 | 0.03 | 0.03 | 65 | 1033.8 |
| 20260503005405 | 17 | 295 | 4.8 | 8.0 | 0.00 | 0.03 | 0.03 | 65 | 1033.8 |
| 20260503004405 | 17 | 295 | 1.6 | 3.2 | 0.00 | 0.03 | 0.03 | 65 | 1034.0 |
| 20260503003906 | 17 | 295 | 0.0 | 3.2 | 0.00 | 0.03 | 0.03 | 68 | 1034.1 |
| 20260503002405 | 17 | 254 | 1.6 | 4.8 | 0.00 | 0.03 | 0.03 | 74 | 1034.3 |
| 20260503001405 | 16 | 222 | 1.6 | 3.2 | 0.00 | 0.03 | 0.03 | 74 | 1034.5 |
| 20260503000904 | 16 | 223 | 1.6 | 4.8 | 0.00 | 0.03 | 0.03 | 76 | 1034.5 |
| 20260503000407 | 16 | 225 | 1.6 | 4.8 | 0.00 | 0.03 | 0.03 | 76 | 1034.6 |
| 20260502233405 | 16 | 218 | 1.6 | 4.8 | 0.00 | 0.03 | 0.03 | 78 | 1035.1 |
| 20260502231904 | 15 | 211 | 0.0 | 0.0 | 0.00 | 0.03 | 0.03 | 81 | 1035.1 |
| 20260502231405 | 14 | 211 | 0.0 | 4.8 | 0.00 | 0.03 | 0.03 | 82 | 1035.1 |
| 20260502230905 | 14 | 203 | 1.6 | 4.8 | 0.00 | 0.03 | 0.03 | 83 | 1035.2 |
| 20260502225905 | 14 | 197 | 1.6 | 4.8 | 0.00 | 0.03 | 0.03 | 84 | 1035.3 |
| 20260502224905 | 13 | 199 | 1.6 | 3.2 | 0.00 | 0.03 | 0.03 | 85 | 1035.3 |
| 20260502224405 | 13 | 200 | 1.6 | 4.8 | 0.00 | 0.03 | 0.03 | 87 | 1035.3 |
| 20260502223904 | 13 | 203 | 0.0 | 3.2 | 0.00 | 0.03 | 0.03 | 88 | 1035.3 |
| 20260502223405 | 13 | 202 | 3.2 | 4.8 | 0.00 | 0.03 | 0.03 | 89 | 1035.3 |
| 20260502222904 | 12 | 202 | 1.6 | 3.2 | 0.00 | 0.03 | 0.03 | 90 | 1035.3 |
| 20260502222405 | 12 | 201 | 1.6 | 3.2 | 0.00 | 0.03 | 0.03 | 90 | 1035.3 |
| 20260502215905 | 11 | 209 | 3.2 | 4.8 | 0.00 | 0.03 | 0.03 | 93 | 1035.3 |
| 20260502215406 | 11 | 210 | 1.6 | 4.8 | 0.00 | 0.03 | 0.03 | 94 | 1035.3 |
| 20260502214405 | 11 | 206 | 3.2 | 4.8 | 0.00 | 0.03 | 0.03 | 95 | 1035.3 |
| 20260502213904 | 10 | 206 | 1.6 | 4.8 | 0.00 | 0.03 | 0.03 | 95 | 1035.4 |
| 20260502212405 | 10 | 205 | 1.6 | 4.8 | 0.00 | 0.03 | 0.03 | 95 | 1035.4 |